Content
SEND FEEDBACK

Daily
Averages
Monthly
Summary
United States of America

PYGA BEACH, GUAM


Home > North America > United States > Guam
Elevation: 6 meters     Latitude: 13 17N     Longitude: 144 39E

WEATHER
 
SELECT A DAY
Number of Records: 351,895;   Date Range: 1/1/95 - 10/24/14
 
SHARE

PRINT THIS DATA

[ ← Previous Day ]
WEATHER ALMANAC - 28 JULY, 2013
[ Next Day → ]
[ °F ]   °C
Weather ElementAverageHighLow
Temperature27.9 °C30.2 °C (10:55 am)26.6 °C (4:55 am)
Dewpoint23.9 °C26.1 °C (10:55 pm)16.1 °C (2:55 am)
Humidity79.4 %95 % (10:55 pm)51 % (2:55 am)
Barometer1010.5 hPa1011.9 hPa (9:55 pm)1009.5 hPa (3:55 pm)
Wind Speed16.4 km/h20.4 km/h (2:55 pm)
Wind Gust27.8 km/h (10:55 am)
Weather ElementAverage
Visibility16.1 km
Wind DirectionENE (83.1 °)

Weather ElementTotal
Precipitation---
Cooling Degree Days10.1 (Base 18.3)
Growing Degree Days18.4 (Base 10)
Averaged from 39 records on 28 July, 2013
WEATHER CONDITIONS BREAKOUT
WIND DIRECTION BREAKOUT
WEATHER BY HOUR - 28 JULY, 2013
[ °F ]   °C
Local TimeTemperatureDewpointHumidityBarometerVisibilityWind DirectionWind SpeedGust SpeedPrecipitationEventsConditions
1:28 AM27 °C25 °C89 %1010.5 hPa16.1 kmEast (90°)18.5 km/hMostly Cloudy
1:29 AM27 °C25 °C89 %1010.5 hPa16.1 kmEast (90°)18.5 km/hScattered Clouds
1:55 AM27.1 °C25.2 °C89 %1010.5 hPa16.1 kmEast (100°)16.7 km/hPartly Cloudy
2:55 AM27 °C16.1 °C51 %1010.2 hPa16.1 kmEast (90°)13 km/hScattered Clouds
3:37 AM27 °C24 °C84 %1010.2 hPa16.1 kmEast (90°)13 km/hMostly Cloudy
3:53 AM27 °C24 °C84 %1010.2 hPa16.1 kmEast (90°)16.7 km/hScattered Clouds
3:55 AM27 °C23.9 °C83 %1010.2 hPa16.1 kmEast (90°)16.7 km/hScattered Clouds
3:59 AM27 °C24 °C84 %1010.2 hPa16.1 kmEast (90°)16.7 km/hMostly Cloudy
4:15 AM27 °C24 °C84 %1010.2 hPa16.1 kmEast (100°)13 km/hRainLight Rain
4:28 AM27 °C24 °C84 %1010.2 hPa16.1 kmEast (90°)16.7 km/hMostly Cloudy
4:31 AM27 °C24 °C84 %1010.2 hPa16.1 kmEast (90°)16.7 km/hScattered Clouds
4:55 AM26.6 °C24.3 °C87 %1010.2 hPa16.1 kmEast (100°)18.5 km/h0 mmScattered Clouds
5:33 AM27 °C24 °C84 %1010.5 hPa16.1 kmEast (90°)16.7 km/hMostly Cloudy
5:36 AM27 °C24 °C84 %1010.5 hPa16.1 kmEast (90°)16.7 km/hScattered Clouds
5:55 AM26.9 °C24.1 °C85 %1010.5 hPa16.1 kmEast (100°)16.7 km/hPartly Cloudy
6:55 AM27.3 °C23.9 °C82 %1011.2 hPa16.1 kmEast (90°)16.7 km/hClear
7:55 AM28.6 °C22.8 °C71 %1011.2 hPa16.1 kmEast (100°)14.8 km/hPartly Cloudy
8:55 AM29.1 °C21.8 °C65 %1011.2 hPa16.1 kmEast (100°)16.7 km/hPartly Cloudy
9:55 AM29.6 °C21.3 °C61 %1011.2 hPa16.1 kmEast (80°)18.5 km/hClear
10:55 AM30.2 °C22.7 °C64 %1011.2 hPa16.1 kmEast (90°)16.7 km/h27.8 km/hPartly Cloudy
11:55 AM30 °C22.9 °C65 %1010.8 hPa16.1 kmESE (110°)14.8 km/hPartly Cloudy
12:55 PM30.1 °C22.3 °C63 %1010.5 hPa16.1 kmEast (90°)16.7 km/hMostly Cloudy
1:55 PM29.7 °C22.6 °C65 %1010.5 hPa16.1 kmEast (90°)16.7 km/hPartly Cloudy
2:55 PM30.2 °C23.5 °C67 %1010.2 hPa16.1 kmENE (70°)20.4 km/hPartly Cloudy
3:06 PM30 °C24 °C70 %1009.8 hPa16.1 kmENE (70°)18.5 km/hMostly Cloudy
3:09 PM30 °C23 °C66 %1010.2 hPa16.1 kmENE (70°)20.4 km/hScattered Clouds
3:55 PM30.1 °C23.3 °C67 %1009.5 hPa16.1 kmENE (60°)18.5 km/hPartly Cloudy
4:55 PM29.4 °C24 °C73 %1009.8 hPa16.1 kmEast (80°)16.7 km/hPartly Cloudy
5:55 PM28.7 °C24.4 °C77 %1010.2 hPa16.1 kmENE (60°)16.7 km/hClear
6:15 PM28 °C24 °C79 %1010.2 hPa16.1 kmEast (80°)18.5 km/hRainLight Rain
6:27 PM28 °C25 °C84 %1010.2 hPa16.1 kmENE (60°)14.8 km/hClear
6:55 PM27.1 °C24.7 °C87 %1010.2 hPa16.1 kmENE (70°)16.7 km/h0 mmClear
7:55 PM27.1 °C25.4 °C90 %1010.8 hPa16.1 kmENE (70°)14.8 km/hClear
8:21 PM27 °C25 °C89 %1011.2 hPa16.1 kmENE (60°)14.8 km/hMostly Cloudy
8:27 PM27 °C26 °C94 %1011.2 hPa16.1 kmENE (60°)14.8 km/hScattered Clouds
8:55 PM26.9 °C25.3 °C91 %1011.2 hPa16.1 kmENE (70°)13 km/hClear
9:55 PM26.9 °C25.3 °C91 %1011.9 hPa16.1 kmENE (70°)16.7 km/hClear
10:55 PM27 °C26.1 °C95 %1011.9 hPa16.1 kmEast (80°)14.8 km/hPartly Cloudy
11:55 PM26.8 °C26 °C95 %1011.5 hPa16.1 kmENE (70°)13 km/hPartly Cloudy
Hourly data recorded from PGUA, located 0 kilometers away from Pyga Beach, Guam







STORIES FROM OUR PARTNERS